User: anonymous   Login
Location: Unspecified
(0.0000°N, 0.0000°E)
Time: 05:43:11
(UTC+00:00)
Language:

ALSAT 2B - Orbit

View from above orbital plane
View from above orbital plane
View from above satellite
View from above satellite

Ground track
Ground track

The orbit is defined by the following mean orbital elements,

1 41786U          26145.62532941 +.00000000 +00000-0 +17353-3 0 00001
2 41786  97.9904 208.3304 0000816  71.3902 288.7393 14.70838775    03
Epoch (UTC): 25 May 2026 15:00:28
Eccentricity: 0.0000816
inclination: 97.9904°
perigee height: 658 km
apogee height: 659 km
right ascension of ascending node: 208.3304°
argument of perigee: 71.3902°
revolutions per day: 14.70838775
mean anomaly at epoch: 288.7393°

The dashed part of the orbit path shows where the satellite is in the earth's shadow,  

DLR